Weather History for VOTR - April, 2013

Change the Weather History Date:

Sunday, April 21, 2013

  Actual Average Record
Temperature  
Mean Temperature 92 °F -  
Max Temperature 104 °F 95 °F 104 °F (1998)
Min Temperature 80 °F 81 °F 68 °F (2009)
Cooling Degree Days 27    
Growing Degree Days 42 (Base 50)    
Moisture  
Dew Point 72 °F    
Average Humidity 53    
Maximum Humidity 84    
Minimum Humidity 21    
Precipitation  
Precipitation 0.00 in - - ()
Sea Level Pressure  
Sea Level Pressure 29.74 in    
Wind  
Wind Speed 6 mph ()    
Max Wind Speed 14 mph    
Max Gust Speed -    
Visibility 4.1 miles    
Events      
Averages and records for this station are not official NWS values.
T = Trace of Precipitation, MM = Missing Value Source: Averaged Metar Reports

Daily Weather History Graph

Daily Weather History Graph

Search for Another Location

Airport or City:

Trip Planner

Search our weather history database for the weather conditions in past years. The results will help you decide how hot, cold, wet, or windy it might be!

Date:

Astronomy

Apr. 21, 2013 Rise Set
Actual Time 6:01 AM IST 6:26 PM IST
Civil Twilight 5:39 AM IST 6:48 PM IST
Nautical Twilight 5:14 AM IST 7:13 PM IST
Astronomical Twilight 4:49 AM IST 7:38 PM IST
Moon 2:30 PM IST (4/21) 2:16 AM IST (4/21)
Length of Visible Light 13h 08m
Length of Day
12h 25m
Waxing Gibbous, 76% of the Moon is Illuminated
Apr 21
Waxing Gibbous
Apr 26
Full
May 2
Last Quarter
May 10
New
May 18
First Quarter

Hourly Weather History & Observations

Time (IST) Temp. Heat Index Dew Point Humidity Pressure Visibility Wind Dir Wind Speed Gust Speed Precip Events Conditions
12:10 AM 86.0 °F 95.1 °F 75.2 °F 70% 29.77 in 3.7 mi SE 5.8 mph - N/A   Partly Cloudy
12:40 AM 86.0 °F 95.1 °F 75.2 °F 70% 29.77 in 3.7 mi South 5.8 mph - N/A   Partly Cloudy
1:10 AM 86.0 °F 95.1 °F 75.2 °F 70% 29.77 in 3.7 mi SSE 3.5 mph - N/A   Partly Cloudy
1:40 AM 86.0 °F 95.1 °F 75.2 °F 70% 29.77 in 3.7 mi South 5.8 mph - N/A   Partly Cloudy
2:10 AM 86.0 °F 95.1 °F 75.2 °F 70% 29.74 in 3.7 mi SSE 6.9 mph - N/A   Partly Cloudy
2:30 AM 86 °F - 73 °F 57% 29.75 in 2 mi NNE 5.8 mph - -   Haze
2:40 AM 86.0 °F 95.1 °F 75.2 °F 70% 29.74 in 3.7 mi SSE 6.9 mph - N/A   Partly Cloudy
3:10 AM 84.2 °F 90.9 °F 73.4 °F 70% 29.74 in 3.7 mi SE 5.8 mph - N/A   Partly Cloudy
3:40 AM 84.2 °F 90.9 °F 73.4 °F 70% 29.74 in 3.7 mi South 4.6 mph - N/A   Partly Cloudy
4:10 AM 84.2 °F 92.3 °F 75.2 °F 74% 29.74 in 3.7 mi SSE 2.3 mph - N/A   Partly Cloudy
4:40 AM 84.2 °F 92.3 °F 75.2 °F 74% 29.74 in 3.7 mi SSW 5.8 mph - N/A   Partly Cloudy
5:30 AM 82 °F - 76 °F 79% 29.74 in 2 mi NE 3.5 mph - -   Haze
5:40 AM 82.4 °F 89.5 °F 75.2 °F 79% 29.74 in 3.1 mi SSW 5.8 mph - N/A   Haze
6:10 AM 82.4 °F 90.9 °F 77.0 °F 84% 29.74 in 2.5 mi South 5.8 mph - N/A   Haze
7:10 AM 86.0 °F 95.1 °F 75.2 °F 70% 29.77 in 1.9 mi South 6.9 mph - N/A   Haze
7:40 AM 89.6 °F 99.8 °F 75.2 °F 62% 29.80 in 2.5 mi South 6.9 mph - N/A   Haze
8:10 AM 89.6 °F 99.8 °F 75.2 °F 62% 29.83 in 2.5 mi South 6.9 mph - N/A   Haze
8:30 AM 90 °F - 72 °F 46% 29.82 in 2 mi SSE 4.6 mph - -   Haze
8:40 AM 89.6 °F 98.2 °F 73.4 °F 59% 29.83 in 2.5 mi SSE 6.9 mph - N/A   Haze
9:40 AM 93.2 °F 100.5 °F 71.6 °F 49% 29.83 in 3.7 mi South 4.6 mph - N/A   Scattered Clouds
10:10 AM 95.0 °F 103.2 °F 71.6 °F 47% 29.83 in 5.0 mi SSE 6.9 mph - N/A   Scattered Clouds
10:40 AM 96.8 °F 103.1 °F 69.8 °F 41% 29.80 in 5.0 mi SSE 6.9 mph - N/A   Scattered Clouds
11:10 AM 96.8 °F 103.1 °F 69.8 °F 41% 29.80 in 5.0 mi South 8.1 mph - N/A   Scattered Clouds
11:30 AM 98 °F - 70 °F 30% 29.78 in 2 mi South 6.9 mph - -   Haze
11:40 AM 98.6 °F 107.7 °F 71.6 °F 42% 29.80 in 5.0 mi South 6.9 mph - N/A   Scattered Clouds
12:10 PM 100.4 °F 109.3 °F 71.6 °F 39% 29.77 in 5.0 mi SE 8.1 mph - N/A   Scattered Clouds
12:40 PM 100.4 °F 109.3 °F 71.6 °F 39% 29.74 in 5.0 mi South 5.8 mph - N/A   Scattered Clouds
1:10 PM 102.2 °F 111.7 °F 71.6 °F 37% 29.74 in 6.2 mi SSE 8.1 mph - N/A   Scattered Clouds
1:40 PM 104.0 °F 112.2 °F 69.8 °F 33% 29.71 in 6.2 mi SSE 5.8 mph - N/A   Scattered Clouds
2:10 PM 104.0 °F 112.2 °F 69.8 °F 33% 29.68 in 6.2 mi SSE 9.2 mph - N/A   Scattered Clouds
2:30 PM 103 °F - 65 °F 21% 29.67 in 6 mi South 10.4 mph - -   Mostly Cloudy
2:40 PM 104.0 °F 110.5 °F 68.0 °F 31% 29.68 in 6.2 mi SSE 10.4 mph - N/A   Scattered Clouds
3:10 PM 104.0 °F 110.5 °F 68.0 °F 31% 29.65 in 6.2 mi SSE 10.4 mph - N/A   Scattered Clouds
3:40 PM 102.2 °F 110.0 °F 69.8 °F 35% 29.65 in 6.2 mi South 10.4 mph - N/A   Scattered Clouds
4:10 PM 102.2 °F 110.0 °F 69.8 °F 35% 29.65 in 6.2 mi SSE 9.2 mph - N/A   Scattered Clouds
4:40 PM 100.4 °F 109.3 °F 71.6 °F 39% 29.65 in 6.2 mi South 9.2 mph - N/A   Scattered Clouds
5:10 PM 98.6 °F 105.5 °F 69.8 °F 39% 29.65 in 6.2 mi SSE 11.5 mph - N/A   Partly Cloudy
5:30 PM 98 °F - 69 °F 29% 29.64 in 6 mi South 12.7 mph - -   Partly Cloudy
5:40 PM 96.8 °F 103.1 °F 69.8 °F 41% 29.65 in 6.2 mi SSE 10.4 mph - N/A   Partly Cloudy
6:10 PM 95.0 °F 101.3 °F 69.8 °F 44% 29.65 in 5.0 mi SSE 13.8 mph - N/A   Partly Cloudy
6:40 PM 93.2 °F 100.5 °F 71.6 °F 49% 29.68 in 3.7 mi SSE 12.7 mph - N/A   Partly Cloudy
7:10 PM 91.4 °F 98.4 °F 71.6 °F 52% 29.71 in 3.7 mi SSE 11.5 mph - N/A   Partly Cloudy
7:40 PM 91.4 °F 98.4 °F 71.6 °F 52% 29.71 in 3.7 mi SSE 12.7 mph - N/A   Partly Cloudy
8:10 PM 89.6 °F 96.2 °F 71.6 °F 55% 29.74 in 3.7 mi SSE 6.9 mph - N/A   Partly Cloudy
8:30 PM 90 °F - 71 °F 44% 29.74 in 2 mi South 6.9 mph - -   Haze
8:40 PM 89.6 °F 96.2 °F 71.6 °F 55% 29.74 in 3.7 mi South 6.9 mph - N/A   Partly Cloudy
9:10 PM 89.6 °F 98.2 °F 73.4 °F 59% 29.77 in 3.7 mi South 6.9 mph - N/A   Partly Cloudy
9:40 PM 87.8 °F 95.6 °F 73.4 °F 62% 29.77 in 3.7 mi SSE 5.8 mph - N/A   Partly Cloudy
10:10 PM 87.8 °F 93.8 °F 71.6 °F 58% 29.77 in 3.7 mi SSE 5.8 mph - N/A   Scattered Clouds
10:40 PM 87.8 °F 93.8 °F 71.6 °F 58% 29.80 in 3.7 mi SE 5.8 mph - N/A   Scattered Clouds
11:10 PM 86.0 °F 91.8 °F 71.6 °F 62% 29.80 in 3.7 mi SSE 4.6 mph - N/A   Partly Cloudy
11:30 PM 86 °F - 72 °F 54% 29.78 in 2 mi SSE 4.6 mph - -   Haze
11:40 PM 86.0 °F 93.4 °F 73.4 °F 66% 29.77 in 3.7 mi SSE 4.6 mph - N/A   Partly Cloudy